Location: Nitra
(0.0000°N, 18.0833°E)
Time: 01:57:44
(UTC+01:00)

OAO 2 Rocket - Pass Details

Date: 30 November 2023
Orbit: 672 x 741 km, 35.0° (Epoch: 03 March)

Event Time Altitude Azimuth Distance (km) Brightness Sun altitude
Rises 18:00:47 0° 240° (WSW) 3,046 9.0 -5.7°
Reaches altitude 10° 18:03:11 10° 243° (WSW) 2,139 7.7 -6.2°
Maximum altitude 18:08:07 60° 323° (NW) 799 3.7 -7.4°
Drops below altitude 10° 18:13:10 10° 43° (NE) 2,180 5.3 -8.6°
Enters shadow 18:13:37 - 44° (NE) 2,348 5.5 -8.7°
